Location: Bermeries
(50.2863°N, 3.7551°E)
Time: 13:59:20
(UTC+00:00)

Cosmos 1908 - Pass Details

Date: 23 May 2024
Orbit: 466 x 481 km, 82.5° (Epoch: 18 June)

Event Time Altitude Azimuth Distance (km) Brightness Sun altitude
Rises 00:12:01 0° 340° (NNW) 2,517 7.8 -18.8°
Reaches altitude 10° 00:14:17 10° 329° (NNW) 1,635 6.5 -18.7°
Maximum altitude 00:17:23 29° 269° (W) 894 4.3 -18.6°
Enters shadow 00:17:45 28° 257° (WSW) 907 4.2 -18.6°
